Weather History for Joplin, MO

Change the Weather History Date:

Saturday, March 30, 2013

  Actual Average Record
Temperature  
Mean Temperature 61 °F 53 °F  
Max Temperature 70 °F 65 °F 83 °F (1967)
Min Temperature 52 °F 42 °F 17 °F (1964)
Degree Days  
Heating Degree Days 4 12  
Month to date heating degree days 648 496  
Since 1 July heating degree days 3764 3750  
Cooling Degree Days 0 1  
Month to date cooling degree days 0 4  
Year to date cooling degree days 1 5  
Growing Degree Days 11 (Base 50)    
Moisture  
Dew Point 52 °F    
Average Humidity 80    
Maximum Humidity 100    
Minimum Humidity 59    
Precipitation  
Precipitation 0.65 in 0.13 in 1.07 in (1985)
Month to date precipitation 2.64 3.29  
Year to date precipitation 7.79 7.64  
Snow  
Snow 0.00 in - - ()
Month to date snowfall T  
Snow Depth 0.00 in    
Sea Level Pressure  
Sea Level Pressure 29.96 in    
Wind  
Wind Speed 10 mph (South)    
Max Wind Speed 22 mph    
Max Gust Speed 25 mph    
Visibility 8 miles    
Events Rain , Thunderstorm    
T = Trace of Precipitation, MM = Missing Value Source: NWS Daily Summary

Daily Weather History Graph

Daily Weather History Graph

Search for Another Location

Airport:

Trip Planner

Search our weather history database for the weather conditions in past years. The results will help you decide how hot, cold, wet, or windy it might be!

Date:

Astronomy

Mar. 30, 2013 Rise Set
Actual Time 7:06 AM CDT 7:39 PM CDT
Civil Twilight 6:40 AM CDT 8:05 PM CDT
Nautical Twilight 6:09 AM CDT 8:36 PM CDT
Astronomical Twilight 5:37 AM CDT 9:07 PM CDT
Moon 11:40 PM CDT (3/30) 9:07 AM CDT (3/30)
Length of Visible Light 13h 25m
Length of Day
12h 32m
Waning Gibbous, 86% of the Moon is Illuminated
Mar 30
Waning Gibbous
Apr 2
Last Quarter
Apr 10
New
Apr 18
First Quarter
Apr 25
Full

Hourly Weather History & Observations

Time (CDT) Temp. Dew Point Humidity Pressure Visibility Wind Dir Wind Speed Gust Speed Precip Events Conditions
12:53 AM 55.9 °F 48.0 °F 75% 30.08 in 10.0 mi ESE 9.2 mph - N/A   Partly Cloudy
1:53 AM 57.0 °F 48.9 °F 74% 30.07 in 10.0 mi SSE 6.9 mph - N/A   Mostly Cloudy
2:53 AM 55.0 °F 48.9 °F 80% 30.05 in 10.0 mi ESE 6.9 mph - N/A   Scattered Clouds
3:53 AM 55.9 °F 48.9 °F 77% 30.03 in 10.0 mi SE 6.9 mph - N/A   Overcast
4:53 AM 55.0 °F 50.0 °F 83% 30.00 in 10.0 mi SE 8.1 mph - N/A   Mostly Cloudy
5:53 AM 55.0 °F 50.0 °F 83% 30.00 in 10.0 mi SE 6.9 mph - N/A   Mostly Cloudy
6:18 AM 55.4 °F 51.8 °F 88% 30.00 in 10.0 mi SE 9.2 mph - N/A Thunderstorm Mostly Cloudy
6:53 AM 55.0 °F 52.0 °F 89% 30.01 in 6.0 mi SSW 11.5 mph 25.3 mph 0.02 in Rain , Thunderstorm Thunderstorms and Rain
7:25 AM 55.4 °F 53.6 °F 94% 30.02 in 2.5 mi South 12.7 mph - 0.11 in Rain , Thunderstorm Thunderstorms and Rain
7:31 AM 55.4 °F 53.6 °F 94% 30.01 in 4.0 mi SSE 12.7 mph - 0.12 in Rain , Thunderstorm Light Rain
7:53 AM 55.0 °F 53.1 °F 93% 29.99 in 5.0 mi SSE 17.3 mph - 0.20 in Rain Light Rain
8:16 AM 55.4 °F 53.6 °F 94% 30.07 in 4.0 mi West 13.8 mph - 0.06 in Rain Rain
8:24 AM 55.4 °F 53.6 °F 94% 30.06 in 2.0 mi SW 11.5 mph - 0.11 in Rain Heavy Rain
8:31 AM 55.4 °F 53.6 °F 94% 30.05 in 1.8 mi South 15.0 mph 21.9 mph 0.13 in Rain Rain
8:39 AM 55.4 °F 53.6 °F 94% 30.02 in 2.5 mi South 16.1 mph - 0.16 in Rain Rain
8:50 AM 55.4 °F 53.6 °F 94% 30.00 in 4.0 mi SSE 13.8 mph - 0.19 in Rain Rain
8:53 AM 55.0 °F 53.1 °F 93% 30.01 in 3.0 mi South 15.0 mph - 0.20 in Rain Rain
8:55 AM 55.4 °F 53.6 °F 94% 30.02 in 3.0 mi South 13.8 mph - 0.01 in Rain Rain
9:34 AM 53.6 °F 53.6 °F 100% 30.00 in 7.0 mi SSW 12.7 mph 20.7 mph 0.06 in Rain Light Rain
9:53 AM 54.0 °F 52.0 °F 93% 29.99 in 10.0 mi SSW 11.5 mph - 0.06 in Rain Light Rain
9:57 AM 53.6 °F 53.6 °F 100% 30.00 in 10.0 mi SSW 8.1 mph - N/A   Mostly Cloudy
10:20 AM 55.4 °F 53.6 °F 94% 29.99 in 10.0 mi South 11.5 mph - N/A   Mostly Cloudy
10:53 AM 57.9 °F 55.0 °F 90% 29.98 in 10.0 mi SSW 9.2 mph - N/A   Mostly Cloudy
11:53 AM 60.1 °F 54.0 °F 80% 29.96 in 10.0 mi WSW 8.1 mph - N/A   Scattered Clouds
12:53 PM 63.0 °F 54.0 °F 72% 29.95 in 10.0 mi WSW 10.4 mph - N/A   Clear
1:53 PM 66.9 °F 54.0 °F 63% 29.94 in 10.0 mi SW 10.4 mph - N/A   Clear
2:53 PM 68.0 °F 53.1 °F 59% 29.91 in 10.0 mi SW 10.4 mph - N/A   Mostly Cloudy
3:53 PM 69.1 °F 55.0 °F 61% 29.88 in 10.0 mi WSW 12.7 mph - N/A   Mostly Cloudy
4:53 PM 68.0 °F 55.0 °F 63% 29.86 in 10.0 mi SW 8.1 mph - N/A   Mostly Cloudy
5:53 PM 68.0 °F 55.9 °F 65% 29.85 in 10.0 mi SW 16.1 mph - N/A   Scattered Clouds
6:37 PM 55.4 °F 46.4 °F 72% 29.91 in 10.0 mi NNE 13.8 mph 23.0 mph N/A Thunderstorm Thunderstorm
6:53 PM 55.0 °F 48.0 °F 77% 29.88 in 10.0 mi NE 11.5 mph - N/A   Mostly Cloudy
7:12 PM 55.4 °F 48.2 °F 77% 29.89 in 10.0 mi ENE 8.1 mph - 0.00 in Rain , Thunderstorm Light Thunderstorms and Rain
7:46 PM 55.4 °F 51.8 °F 88% 29.90 in 2.0 mi Calm Calm - 0.16 in Rain , Thunderstorm Light Thunderstorms and Rain
7:53 PM 55.0 °F 52.0 °F 89% 29.88 in 8.0 mi ESE 4.6 mph - 0.16 in Rain , Thunderstorm Light Thunderstorms and Rain
8:19 PM 55.4 °F 53.6 °F 94% 29.90 in 10.0 mi SSW 9.2 mph - 0.00 in   Overcast
8:50 PM 55.4 °F 53.6 °F 94% 29.91 in 10.0 mi SSE 3.5 mph - 0.00 in Thunderstorm Overcast
8:53 PM 55.0 °F 53.1 °F 93% 29.90 in 10.0 mi Calm Calm - 0.00 in   Overcast
9:01 PM 55.4 °F 53.6 °F 94% 29.90 in 10.0 mi SE 4.6 mph - 0.00 in Rain , Thunderstorm Light Rain
9:16 PM 55.4 °F 53.6 °F 94% 29.90 in 10.0 mi South 4.6 mph - 0.00 in Rain Light Rain
9:53 PM 55.0 °F 54.0 °F 96% 29.90 in 10.0 mi South 6.9 mph - 0.00 in   Mostly Cloudy
10:53 PM 53.1 °F 51.1 °F 93% 29.91 in 10.0 mi North - - N/A   Mostly Cloudy
11:53 PM 54.0 °F 53.1 °F 97% 29.91 in 10.0 mi East 4.6 mph - 0.01 in   Mostly Cloudy